Regional Weather Roundup
Issued by NWS

Home | Current Version | Previous Version | Graphics & Text | Print | Product List | Glossary On
Versions: 1 2 3 4 5 6 7 8 9 10 11 12 13 14 15 16 17 18 19 20 21 22 23 24 25 26 27 28 29 30 31 32 33 34 35 36 37 38 39 40 41 42 43 44 45 46 47 48 49 50
000
ASUS43 KOAX 290010
RWRNE

WEATHER ROUNDUP FOR NEBRASKA
NATIONAL WEATHER SERVICE OMAHA NE
700 PM CDT SUN MAY 28 2017

NOTES: SATELLITE DATA IS BEING USED TO AUGMENT CLOUD COVER ABOVE
       12000 FEET.
       "FAIR" INDICATES FEW OR NO CLOUDS BELOW 12,000 FEET WITH NO
       SIGNIFICANT WEATHER AND/OR OBSTRUCTIONS TO VISIBILITY.

  * THESE STATIONS DO NOT REPORT WEATHER SUCH AS RAIN...SNOW OR FOG.

NEZ001>004-019>022-054>056-290100-
NEBRASKA PANHANDLE

CITY           SKY/WX    TMP DP  RH WIND       PRES   REMARKS
SCOTTSBLUFF    CLOUDY    66  43  43 NW9       30.15F
6HR MIN TEMP:  59; 6HR MAX TEMP:  76; 6HR PCP: TRACE;

ALLIANCE       CLOUDY    60  47  61 W8        30.13R
6HR MIN TEMP:  58; 6HR MAX TEMP:  73; 6HR PCP: TRACE;

CHADRON        CLOUDY    61  51  70 SW14      30.08F
6HR MIN TEMP:  58; 6HR MAX TEMP:  74; 6HR PCP:  0.05;

GORDON         MOCLDY    66  43  43 W15G23    30.08R
6HR MIN TEMP:  58; 6HR MAX TEMP:  70;

KIMBALL        LGT RAIN  62  42  48 N24G33    30.20R
SIDNEY         LGT RAIN  67  43  41 N10       30.14R
6HR MIN TEMP:  67; 6HR MAX TEMP:  73; 6HR PCP: TRACE;

$$

NEZ057>060-069>072-079>082-290100-
SOUTHWEST NEBRASKA

CITY           SKY/WX    TMP DP  RH WIND       PRES   REMARKS
NORTH PLATTE   MOSUNNY   75  48  38 NW9       30.02F
6HR MIN TEMP:  69; 6HR MAX TEMP:  78; 6HR PCP:  0.01;

IMPERIAL       SUNNY     74  40  29 NW15      30.07S
6HR MIN TEMP:  73; 6HR MAX TEMP:  79;

LEXINGTON      MOSUNNY   77  42  28 NW8       30.00F
MCCOOK         SUNNY     78  43  28 N9        30.03S
6HR MIN TEMP:  75; 6HR MAX TEMP:  83;

OGALLALA       SUNNY     75  40  28 NW12G23   30.06S
$$

NEZ005>010-023>029-035>040-094-290100-
NORTH CENTRAL NEBRASKA

CITY           SKY/WX    TMP DP  RH WIND       PRES   REMARKS
VALENTINE      MOSUNNY   73  37  27 W9        29.97F
6HR MIN TEMP:  72; 6HR MAX TEMP:  77;

AINSWORTH      MOSUNNY   73  38  27 W14       29.98F
BROKEN BOW     SUNNY     75  40  28 W12       30.00S
6HR MIN TEMP:  75; 6HR MAX TEMP:  79;

O`NEILL        MOSUNNY   73  32  22 W10       29.95F
ORD            SUNNY     72  38  29 NW9       29.96F
6HR MIN TEMP:  72; 6HR MAX TEMP:  76;

THEDFORD       RAIN      64  46  51 W25G43    30.05R
$$

NEZ041-046>049-061>064-073>077-083>087-290100-
SOUTH CENTRAL NEBRASKA

CITY           SKY/WX    TMP DP  RH WIND       PRES   REMARKS
GRAND ISLAND   SUNNY     77  38  24 NW15G21   29.97F
6HR MIN TEMP:  77; 6HR MAX TEMP:  82;

AURORA         SUNNY     77  34  20 NW10      29.96F
HASTINGS       SUNNY     75  43  31 W10       29.99F
6HR MIN TEMP:  67; 6HR MAX TEMP:  81; 6HR PCP: TRACE;

HEBRON         PTSUNNY   76  43  30 NW9G18    29.96S
HOLDREGE       SUNNY     74  42  31 NW3       30.01S
KEARNEY *      SUNNY     77  41  27 NW12G18   29.99F
YORK           SUNNY     77  36  22 NW16      29.95F
$$

NEZ011>018-030>034-042>045-290100-
NORTHEAST NEBRASKA

CITY           SKY/WX    TMP DP  RH WIND       PRES   REMARKS
NORFOLK        MOSUNNY   75  37  25 NW12      29.92S
6HR MIN TEMP:  74; 6HR MAX TEMP:  77;

ALBION         SUNNY     74  38  27 NW12G21   29.95F
BLAIR          MOSUNNY   77  40  26 NW16      29.90F
FREMONT        MOSUNNY   77  39  25 NW10G21   29.91F
TEKAMAH        SUNNY     79  37  22 NW15      29.88F
6HR MIN TEMP:  78; 6HR MAX TEMP:  83;

WAYNE          PTSUNNY   76  37  24 W17       29.89F
$$

NEZ050>053-065>068-078-088>093-290100-
SOUTHEAST NEBRASKA

CITY           SKY/WX    TMP DP  RH WIND       PRES   REMARKS
LINCOLN        SUNNY     79  37  22 N15       29.93S
6HR MIN TEMP:  79; 6HR MAX TEMP:  85;

OMAHA EPPLEY   MOSUNNY   77  40  26 N16       29.88F
6HR MIN TEMP:  77; 6HR MAX TEMP:  83;

BEATRICE       SUNNY     79  40  24 NW17      29.93S
FALLS CITY     MOSUNNY   79  45  29 NW12G23   29.88S
6HR MIN TEMP:  75; 6HR MAX TEMP:  80;

NEBRASKA CITY  SUNNY     78  29  16 N16G25    29.90S
PLATTSMOUTH    SUNNY     79  35  20 NW14      29.90S
$$

NEZ044-045-051>053-067-290100-
OMAHA AREA

CITY           SKY/WX    TMP DP  RH WIND       PRES   REMARKS
OMAHA EPPLEY   MOSUNNY   77  40  26 N16       29.88F
6HR MIN TEMP:  77; 6HR MAX TEMP:  83;

BLAIR          MOSUNNY   77  40  26 NW16      29.90F
FREMONT        MOSUNNY   77  39  25 NW10G21   29.91F
MILLARD        SUNNY     79  41  25 NW9       29.90S
OFFUTT AFB     SUNNY     77  40  26 W15G22    29.88F
PLATTSMOUTH    SUNNY     79  35  20 NW14      29.90S
WAHOO          FAIR      78  33  19 NW12G18   29.91F HAZE
$$




USA.gov is the U.S. government's official web portal to all federal, state and local government web resources and services.